DW7759 Weather Reports


time (UTC)temp
C
wind
direction
speed
KPH
gust
KPH
rain 1hr
cm
rain 24hr
cm
rain mn
cm
humidity
%
barometer
mb
20260505121855 6 246 0.0 0.0 0.00 0.00 0.00 89 1009.5
20260505121359 6 246 0.0 0.0 0.00 0.00 0.00 89 1009.5
20260505115626 6 246 0.0 0.0 0.00 0.00 0.00 89 1009.4
20260505114517 6 246 0.0 0.0 0.00 0.00 0.00 89 1009.3
20260505114020 6 246 0.0 0.0 0.00 0.00 0.00 89 1009.4
20260505112909 6 246 0.0 0.0 0.00 0.00 0.00 88 1009.4
20260505112416 6 246 0.0 0.0 0.00 0.00 0.00 88 1009.3
20260505111921 6 246 0.0 0.0 0.00 0.00 0.00 88 1009.2
20260505111404 6 246 0.0 0.0 0.00 0.00 0.00 87 1009.2
20260505110911 6 246 0.0 0.0 0.00 0.00 0.00 87 1009.2
20260505110206 6 246 0.0 0.0 0.00 0.00 0.00 87 1009.2
20260505102136 7 246 0.0 0.0 0.00 0.00 0.00 88 1009.0
20260505101625 7 246 0.0 1.6 0.00 0.00 0.00 88 1008.9
20260505101132 7 246 0.0 1.6 0.00 0.00 0.00 87 1008.9
20260505100017 7 246 0.0 0.0 0.00 0.00 0.00 87 1008.9
20260505095500 7 246 0.0 3.2 0.00 0.00 0.00 87 1008.9
20260505095007 7 246 0.0 0.0 0.00 0.00 0.00 87 1008.8
20260505094513 7 246 0.0 0.0 0.00 0.00 0.00 85 1008.8
20260505093954 7 246 0.0 0.0 0.00 0.00 0.00 86 1008.7
20260505093500 8 246 0.0 0.0 0.00 0.00 0.00 86 1008.6
20260505092954 8 246 0.0 0.0 0.00 0.00 0.00 86 1008.5
20260505092438 8 246 0.0 0.0 0.00 0.00 0.00 86 1008.4
20260505091924 8 246 0.0 0.0 0.00 0.00 0.00 86 1008.4
20260505091411 8 246 0.0 0.0 0.00 0.00 0.00 85 1008.4
20260505090906 8 246 0.0 0.0 0.00 0.00 0.00 83 1008.3
20260505090411 8 246 0.0 0.0 0.00 0.00 0.00 85 1008.4
20260505085257 8 246 0.0 0.0 0.00 0.00 0.00 84 1008.3
20260505084748 9 246 0.0 0.0 0.00 0.00 0.00 84 1008.3
20260505084251 9 246 0.0 4.8 0.00 0.00 0.00 83 1008.3
20260505083737 9 246 0.0 0.0 0.00 0.00 0.00 82 1008.3
20260505083221 10 246 0.0 0.0 0.00 0.00 0.00 84 1008.3
20260505082702 10 246 0.0 0.0 0.00 0.00 0.00 84 1008.3
20260505082201 10 246 0.0 0.0 0.00 0.00 0.00 84 1008.3
20260505081644 10 246 0.0 4.8 0.00 0.00 0.00 85 1008.3
20260505081138 10 245 0.0 0.0 0.00 0.00 0.00 83 1008.2
20260505080648 10 246 0.0 0.0 0.00 0.00 0.00 81 1008.4
20260505080154 10 246 0.0 6.4 0.00 0.00 0.00 80 1008.3
20260505075650 10 211 0.0 0.0 0.00 0.00 0.00 80 1008.3
20260505075137 11 211 0.0 0.0 0.00 0.00 0.00 79 1008.3
20260505074626 11 211 0.0 0.0 0.00 0.00 0.00 78 1008.2
20260505074124 11 211 0.0 0.0 0.00 0.00 0.00 79 1008.1
20260505073605 11 211 0.0 0.0 0.00 0.00 0.00 79 1008.1
20260505073053 12 211 0.0 0.0 0.00 0.00 0.00 78 1008.2
20260505071313 13 209 0.0 1.6 0.00 0.00 0.00 75 1008.0
20260505070816 13 209 0.0 0.0 0.00 0.00 0.00 74 1008.0
20260505065639 14 208 3.2 8.0 0.00 0.00 0.00 78 1007.8
20260505065128 14 207 3.2 8.0 0.00 0.00 0.00 77 1007.9
20260505064634 14 205 1.6 8.0 0.00 0.00 0.00 77 1007.8
20260505064120 14 197 1.6 6.4 0.00 0.00 0.00 77 1007.8
20260505063606 15 196 0.0 6.4 0.00 0.00 0.00 76 1007.8
20260505063111 15 196 0.0 0.0 0.00 0.00 0.00 76 1007.9
20260505061314 14 206 0.0 4.8 0.00 0.00 0.00 78 1007.7
20260505060822 13 206 0.0 4.8 0.00 0.00 0.00 79 1007.7
20260505060305 13 207 0.0 0.0 0.00 0.00 0.00 77 1007.6
20260505055757 13 207 0.0 0.0 0.00 0.00 0.00 76 1007.6
20260505055237 13 194 0.0 0.0 0.00 0.00 0.00 77 1007.5
20260505054745 13 194 0.0 0.0 0.00 0.00 0.00 75 1007.6
20260505054248 13 194 0.0 0.0 0.00 0.00 0.00 74 1007.5
20260505052515 15 194 0.0 0.0 0.00 0.00 0.00 70 1007.5
20260505050716 16 193 0.0 0.0 0.00 0.00 0.00 66 1007.3
20260505050157 16 193 0.0 0.0 0.00 0.00 0.00 66 1007.2
20260505041407 18 193 1.6 4.8 0.00 0.00 0.00 60 1006.6
20260505035554 19 200 0.0 0.0 0.00 0.00 0.00 59 1006.4
20260505033210 20 180 0.0 4.8 0.00 0.00 0.00 55 1006.0
20260505031427 20 195 6.4 14.5 0.00 0.00 0.00 54 1005.5
20260505030935 20 183 6.4 9.7 0.00 0.00 0.00 52 1005.5
20260505030420 21 198 4.8 9.7 0.00 0.00 0.00 54 1005.4
20260505025308 21 182 3.2 12.9 0.00 0.00 0.00 52 1005.4
20260505024201 22 183 11.3 16.1 0.00 0.00 0.00 52 1005.2
20260505023707 22 167 9.7 16.1 0.00 0.00 0.00 50 1005.2
20260505023155 22 180 4.8 16.1 0.00 0.00 0.00 49 1005.2
20260505021347 24 5 0.0 0.0 0.00 0.00 0.00 46 1005.2
20260505020829 25 10 0.0 3.2 0.00 0.00 0.00 43 1005.0
20260505020325 25 347 0.0 8.0 0.00 0.00 0.00 42 1005.0
20260505015813 25 182 0.0 0.0 0.00 0.00 0.00 44 1005.0
20260505014638 25 223 3.2 24.1 0.00 0.00 0.00 43 1005.0
20260505014133 25 200 4.8 24.1 0.00 0.00 0.00 41 1005.0
20260505013628 25 249 4.8 24.1 0.00 0.00 0.00 40 1005.0
20260505013113 25 254 6.4 24.1 0.00 0.00 0.00 41 1005.0
20260505011957 25 208 3.2 27.4 0.00 0.00 0.00 41 1004.9
20260505011500 25 232 4.8 27.4 0.00 0.00 0.00 41 1004.9
20260505010946 25 241 8.0 27.4 0.00 0.00 0.00 41 1005.1
20260505010431 25 217 12.9 27.4 0.00 0.00 0.00 40 1005.0
20260505005914 25 195 14.5 35.4 0.00 0.00 0.00 40 1004.8
20260505005407 25 190 14.5 35.4 0.00 0.00 0.00 39 1004.7
20260505004245 26 188 16.1 35.4 0.00 0.00 0.00 40 1004.6
20260505003118 26 214 19.3 33.8 0.00 0.00 0.00 39 1004.7
20260505002611 26 203 19.3 33.8 0.00 0.00 0.00 39 1004.6
20260505002119 25 194 17.7 33.8 0.00 0.00 0.00 40 1004.7
20260505001559 25 180 19.3 32.2 0.00 0.00 0.00 40 1004.7
20260505001046 26 203 22.5 43.5 0.00 0.00 0.00 38 1004.8
20260505000531 26 188 22.5 43.5 0.00 0.00 0.00 38 1004.7
20260505000025 27 191 22.5 43.5 0.00 0.00 0.00 37 1004.9
20260504235518 27 196 22.5 43.5 0.00 0.00 0.00 35 1004.8
20260504235000 27 217 20.9 33.8 0.00 0.00 0.00 36 1004.8
20260504234454 27 188 19.3 33.8 0.00 0.00 0.00 35 1004.8
20260504233959 27 196 19.3 30.6 0.00 0.00 0.00 35 1004.8
20260504233456 27 182 14.5 27.4 0.00 0.00 0.00 35 1004.8
20260504231707 27 194 16.1 27.4 0.00 0.00 0.00 40 1005.1
20260504231214 27 194 17.7 27.4 0.00 0.00 0.00 40 1005.1
20260504230702 27 195 19.3 27.4 0.00 0.00 0.00 42 1005.2
20260504230143 27 184 17.7 27.4 0.00 0.00 0.00 40 1005.3
20260504225632 27 164 16.1 25.7 0.00 0.00 0.00 41 1005.3
20260504225123 27 200 16.1 24.1 0.00 0.00 0.00 43 1005.4
20260504224614 27 200 16.1 24.1 0.00 0.00 0.00 40 1005.5
20260504224101 27 193 16.1 24.1 0.00 0.00 0.00 39 1005.5
20260504223554 27 178 14.5 25.7 0.00 0.00 0.00 43 1005.6
20260504223037 27 199 16.1 25.7 0.00 0.00 0.00 40 1005.6
20260504222521 27 188 16.1 25.7 0.00 0.00 0.00 42 1005.6
20260504222030 27 201 17.7 25.7 0.00 0.00 0.00 41 1005.8
20260504221523 27 177 16.1 24.1 0.00 0.00 0.00 40 1005.8
20260504220424 27 191 16.1 27.4 0.00 0.00 0.00 40 1005.8
20260504215915 27 185 14.5 27.4 0.00 0.00 0.00 38 1006.0
20260504214758 27 195 16.1 27.4 0.00 0.00 0.00 37 1006.0
20260504213653 27 193 17.7 24.1 0.00 0.00 0.00 37 1006.2
20260504213202 27 174 16.1 24.1 0.00 0.00 0.00 35 1006.2
20260504212649 28 191 14.5 24.1 0.00 0.00 0.00 35 1006.3
20260504212137 28 213 14.5 24.1 0.00 0.00 0.00 36 1006.3
20260504211028 27 188 12.9 22.5 0.00 0.00 0.00 35 1006.5
20260504210518 28 180 14.5 22.5 0.00 0.00 0.00 36 1006.6
20260504210028 28 196 12.9 22.5 0.00 0.00 0.00 34 1006.5
20260504205508 28 188 11.3 22.5 0.00 0.00 0.00 36 1006.6
20260504204956 28 191 12.9 22.5 0.00 0.00 0.00 37 1006.7
20260504204505 28 210 12.9 22.5 0.00 0.00 0.00 34 1006.8
20260504204003 28 191 9.7 19.3 0.00 0.00 0.00 36 1006.7
20260504203454 28 223 9.7 19.3 0.00 0.00 0.00 31 1006.8
20260504202942 28 197 9.7 19.3 0.00 0.00 0.00 31 1006.9
20260504201818 28 193 8.0 16.1 0.00 0.00 0.00 32 1006.9
20260504201301 27 207 9.7 17.7 0.00 0.00 0.00 32 1006.9
20260504200745 27 212 12.9 17.7 0.00 0.00 0.00 32 1006.9
20260504200239 27 183 11.3 17.7 0.00 0.00 0.00 33 1006.9
20260504195728 27 190 8.0 17.7 0.00 0.00 0.00 33 1007.0
20260504195222 27 216 8.0 16.1 0.00 0.00 0.00 32 1007.0
20260504194730 27 219 8.0 16.1 0.00 0.00 0.00 32 1007.0
20260504194214 27 244 6.4 14.5 0.00 0.00 0.00 29 1007.1
20260504193700 27 196 6.4 14.5 0.00 0.00 0.00 28 1007.1
20260504193155 27 181 6.4 12.9 0.00 0.00 0.00 30 1007.1
20260504192655 27 192 6.4 12.9 0.00 0.00 0.00 34 1007.2
20260504192152 27 209 6.4 12.9 0.00 0.00 0.00 32 1007.3
20260504191634 27 182 4.8 12.9 0.00 0.00 0.00 29 1007.3
20260504191144 27 203 4.8 12.9 0.00 0.00 0.00 34 1007.3
20260504190641 27 202 4.8 12.9 0.00 0.00 0.00 30 1007.4
20260504190131 27 198 6.4 12.9 0.00 0.00 0.00 34 1007.4
20260504185617 27 194 8.0 12.9 0.00 0.00 0.00 35 1007.4
20260504185113 27 182 4.8 12.9 0.00 0.00 0.00 33 1007.4
20260504184615 27 194 4.8 11.3 0.00 0.00 0.00 35 1007.5
20260504184108 27 186 4.8 11.3 0.00 0.00 0.00 33 1007.6
20260504182954 26 208 6.4 11.3 0.00 0.00 0.00 32 1007.6
20260504182505 26 214 4.8 11.3 0.00 0.00 0.00 37 1007.6
20260504182007 26 223 4.8 11.3 0.00 0.00 0.00 41 1007.7
20260504181516 25 194 3.2 11.3 0.00 0.00 0.00 43 1007.7
20260504180351 25 227 0.0 6.4 0.00 0.00 0.00 44 1007.8
20260504175838 24 214 1.6 9.7 0.00 0.00 0.00 44 1007.8
20260504175342 24 216 1.6 9.7 0.00 0.00 0.00 43 1007.8
20260504174846 23 198 3.2 9.7 0.00 0.00 0.00 49 1007.8
20260504174332 23 198 3.2 9.7 0.00 0.00 0.00 48 1007.9
20260504173832 22 204 0.0 9.7 0.00 0.00 0.00 49 1007.9
20260504173328 22 219 0.0 3.2 0.00 0.00 0.00 51 1008.0
20260504172809 21 219 0.0 4.8 0.00 0.00 0.00 53 1008.0
20260504172252 21 223 0.0 3.2 0.00 0.00 0.00 53 1008.0
20260504171737 20 223 0.0 0.0 0.00 0.00 0.00 58 1008.0
20260504171231 19 223 0.0 0.0 0.00 0.00 0.00 63 1008.0
20260504170737 18 224 0.0 0.0 0.00 0.00 0.00 63 1008.0
20260504170229 18 224 0.0 0.0 0.00 0.00 0.00 62 1008.1
20260504160439 14 214 1.6 6.4 0.00 0.00 0.00 76 1008.6
20260504150747 10 246 0.0 0.0 0.00 0.00 0.00 88 1008.9
20260504150245 10 246 0.0 0.0 0.00 0.00 0.00 88 1008.9
20260504130443 4 234 0.0 0.0 0.00 0.00 0.00 90 1008.3